sat.trackr.live / text

‹ back to catalog

QIANFAN-99

NORAD 66041 · 2025-233J

PAYLOAD ACTIVE UNKNOWN

§ Identity

Operator
Country
PRC
Launch date
2025-10-17
Launch site
TAISC
Launch vehicle
Mass (kg)
RCS (m²)

External: N2YO · Heavens-Above · Gunter

§ Orbital elements

Epoch: 2026-05-25T03:10:55.910784Z

Period
106.59 min
Inclination
89.0026°
Eccentricity
0.0001871
Mean motion
13.51006316 rev/d
Perigee alt
1,067.2 km
Apogee alt
1,070.0 km
Semi-major
7,446.7 km
B*
1.8925e-4
RAAN
45.5194°
Arg perigee
78.4502°
Mean anomaly
281.6859°
Rev number
3,007

§ Raw data

QIANFAN-991 66041U 25233J   26145.13259156  .00000134  00000+0  18925-3 0  99972 66041  89.0026  45.5194 0001871  78.4502 281.6859 13.51006316 30070

JSON: /api/v1/satellites/66041 · /tle

For live sub-satellite position, see the globe view (requires WebGL).

§ Visibility from observer

Set your observer location to see the next 7 days of passes ≥ 10°. The values pass through the URL so the page stays shareable.

No JS? Fill the form by hand. The geolocation button needs JavaScript.